Back to catalog

CZ-4C DEB

AliveSSO
NORAD 55837·DEBRIS·🇨🇳 China

Launched Mar 9, 2023 from Taiyuan Satellite Launch Center

Loading…

Next Passes (next 24 hours)

TLE

FreshSource: Space-Track

Epoch: Sep 14, 2026, 01:04 UTC

1 55837U 23030B   26257.04444741  .00000317  00000-0  22377-3 0  9991
2 55837  98.9802 268.8730 0002388 309.4246  50.6710 14.05160776180251

Track CZ-4C DEB in real time with AllMySat

Download on the App Store